Location: Elaine Barite Prospect
(34.1431°N, 106.7922°W)
Time: 08:39:20
(UTC+00:00)

IGS 5A - Pass Details

Date: 13 December 2025
Orbit: 551 x 554 km, 97.4° (Epoch: 8 January)

Event Time Altitude Azimuth Distance (km) Brightness Sun altitude
Rises 12:39:46 0° 16° (NNE) 2,738 6.9 -17.0°
Reaches altitude 10° 12:41:57 10° 21° (NNE) 1,838 6.0 -16.6°
Maximum altitude 12:45:51 55° 100° (E) 671 4.1 -15.8°
Drops below altitude 10° 12:49:43 10° 178° (S) 1,823 6.2 -15.1°
Sets 12:51:52 0° 183° (S) 2,712 7.1 -14.6°
